Weather History for Danville, VA

Change the Weather History Date:

Sunday, December 12, 2010

  Actual Average Record
Temperature  
Mean Temperature 38 °F 40 °F  
Max Temperature 42 °F 50 °F 79 °F (2007)
Min Temperature 33 °F 31 °F 2 °F (1958)
Degree Days  
Heating Degree Days 27 24  
Month to date heating degree days 377 275  
Since 1 July heating degree days 1028 984  
Cooling Degree Days 0 0  
Month to date cooling degree days 0 0  
Year to date cooling degree days 1946 1439  
Moisture  
Dew Point 37 °F    
Average Humidity 88    
Maximum Humidity 100    
Minimum Humidity 76    
Precipitation  
Precipitation 0.21 in 0.11 in 2.02 in (1961)
Month to date precipitation 0.94 1.36  
Year to date precipitation 39.81 42.50  
Snow  
Snow 0.00 in - - ()
Month to date snowfall 1.0  
Since 1 July snowfall 1.0  
Snow Depth 0.00 in    
Sea Level Pressure  
Sea Level Pressure 29.51 in    
Wind  
Wind Speed 5 mph (West)    
Max Wind Speed 10 mph    
Max Gust Speed -    
Visibility 4 miles    
Events Fog , Rain    
T = Trace of Precipitation, MM = Missing Value Source: NWS Daily Summary

Daily Weather History Graph

Daily Weather History Graph

Search for Another Location

Airport:

Trip Planner

Search our weather history database for the weather conditions in past years. The results will help you decide how hot, cold, wet, or windy it might be!

Date:

Astronomy

Dec. 12, 2010 Rise Set
Actual Time 7:20 AM EST 5:02 PM EST
Civil Twilight 6:51 AM EST 5:30 PM EST
Nautical Twilight 6:19 AM EST 6:03 PM EST
Astronomical Twilight 5:47 AM EST 6:34 PM EST
Moon 11:43 AM EST (12/12) 11:52 PM EST (12/12)
Length of Visible Light 10h 39m
Length of Day
9h 42m
Waxing Crescent, 42% of the Moon is Illuminated
Dec 12
Waxing Crescent
Dec 13
First Quarter
Dec 21
Full
Dec 27
Last Quarter
Jan 4
New

Hourly Weather History & Observations

Time (EST) Temp. Windchill Dew Point Humidity Pressure Visibility Wind Dir Wind Speed Gust Speed Precip Events Conditions
12:31 AM 35.6 °F 30.7 °F 33.8 °F 93% 29.87 in 3.0 mi NNW 5.8 mph - 0.01 in   Overcast
12:43 AM 35.6 °F 30.7 °F 33.8 °F 93% 29.87 in 2.0 mi NNW 5.8 mph - 0.01 in   Overcast
12:53 AM 35.1 °F 30.1 °F 34.0 °F 96% 29.86 in 2.0 mi North 5.8 mph - 0.01 in   Overcast
1:53 AM 36.0 °F 32.1 °F 34.0 °F 93% 29.80 in 2.5 mi NNW 4.6 mph - N/A   Overcast
2:23 AM 35.6 °F 31.7 °F 33.8 °F 93% 29.77 in 1.5 mi NE 4.6 mph - N/A   Overcast
2:39 AM 35.6 °F - 35.6 °F 100% 29.77 in 2.5 mi Calm Calm - N/A   Overcast
2:49 AM 35.6 °F 32.8 °F 33.8 °F 93% 29.76 in 3.0 mi North 3.5 mph - N/A   Overcast
2:53 AM 36.0 °F - 34.0 °F 93% 29.76 in 3.0 mi Calm Calm - N/A   Overcast
3:39 AM 35.6 °F - 33.8 °F 93% 29.74 in 1.8 mi Calm Calm - N/A   Overcast
3:53 AM 36.0 °F - 35.1 °F 97% 29.72 in 1.5 mi Calm Calm - N/A   Overcast
4:53 AM 35.1 °F 32.2 °F 34.0 °F 96% 29.68 in 1.8 mi SW 3.5 mph - N/A   Overcast
5:53 AM 35.1 °F 32.2 °F 34.0 °F 96% 29.66 in 1.0 mi SW 3.5 mph - N/A   Overcast
6:28 AM 35.6 °F 30.7 °F 33.8 °F 93% 29.66 in 0.8 mi SSW 5.8 mph - N/A   Mist
6:49 AM 35.6 °F 31.7 °F 33.8 °F 93% 29.66 in 1.0 mi SSW 4.6 mph - 0.01 in Rain Light Rain
6:53 AM 35.1 °F 32.2 °F 35.1 °F 100% 29.66 in 1.2 mi SSW 3.5 mph - 0.01 in Rain Light Rain
7:30 AM 35.6 °F 32.8 °F 35.6 °F 100% 29.65 in 2.5 mi SSW 3.5 mph - 0.01 in Rain Light Rain
7:50 AM 35.6 °F - 35.6 °F 100% 29.63 in 1.2 mi Calm Calm - 0.01 in Rain Light Rain
7:53 AM 35.1 °F - 34.0 °F 96% 29.62 in 1.2 mi Calm Calm - 0.01 in Rain Light Rain
8:23 AM 35.6 °F 32.8 °F 33.8 °F 93% 29.61 in 2.0 mi SSE 3.5 mph - 0.00 in Rain Light Rain
8:34 AM 35.6 °F 32.8 °F 35.6 °F 100% 29.61 in 4.0 mi SSE 3.5 mph - 0.00 in   Overcast
8:53 AM 36.0 °F 32.1 °F 35.1 °F 97% 29.60 in 4.0 mi South 4.6 mph - 0.01 in Rain Light Rain
9:53 AM 37.0 °F - 36.0 °F 96% 29.52 in 4.0 mi Calm Calm - 0.01 in   Overcast
10:53 AM 39.0 °F - 37.9 °F 96% 29.51 in 4.0 mi Calm Calm - 0.05 in Rain Light Rain
11:00 AM 39.2 °F - 37.4 °F 93% 29.51 in 2.5 mi Calm Calm - 0.03 in Rain Rain
11:13 AM 39.2 °F 37.0 °F 37.4 °F 93% 29.49 in 3.0 mi WSW 3.5 mph - 0.04 in Rain Light Rain
11:53 AM 39.9 °F - 39.0 °F 97% 29.44 in 3.0 mi Calm Calm - 0.05 in Rain Light Rain
12:53 PM 41.0 °F - 39.9 °F 96% 29.40 in 2.0 mi North - - 0.02 in Rain Light Rain
1:01 PM 42.8 °F - 39.2 °F 87% 29.40 in 1.8 mi North - - 0.02 in Rain Light Rain
1:09 PM 42.8 °F - 39.2 °F 87% 29.40 in 2.5 mi North - - 0.02 in Rain Light Rain
1:34 PM 41.0 °F - 39.2 °F 93% 29.38 in 3.0 mi Calm Calm - 0.02 in Rain Light Rain
1:48 PM 41.0 °F - 39.2 °F 93% 29.38 in 2.5 mi Calm Calm - 0.02 in   Overcast
1:53 PM 41.0 °F - 39.9 °F 96% 29.37 in 3.0 mi Calm Calm - 0.02 in   Overcast
2:07 PM 41.0 °F 39.0 °F 39.2 °F 93% 29.37 in 3.0 mi North 3.5 mph - N/A   Overcast
2:53 PM 41.0 °F 37.1 °F 39.9 °F 96% 29.34 in 5.0 mi NNW 5.8 mph - 0.02 in Rain Light Rain
3:05 PM 41.0 °F 38.0 °F 39.2 °F 93% 29.34 in 5.0 mi NNW 4.6 mph - 0.00 in   Overcast
3:32 PM 41.0 °F 39.0 °F 39.2 °F 93% 29.35 in 6.0 mi NNW 3.5 mph - 0.01 in Rain Light Rain
3:53 PM 41.0 °F 37.1 °F 39.0 °F 93% 29.34 in 10.0 mi NNW 5.8 mph - 0.01 in Rain Light Rain
4:20 PM 41.0 °F 38.0 °F 39.2 °F 93% 29.34 in 10.0 mi NW 4.6 mph - 0.00 in   Overcast
4:49 PM 41.0 °F - 39.2 °F 93% 29.35 in 10.0 mi Calm Calm - 0.00 in   Overcast
4:53 PM 41.0 °F 39.0 °F 39.0 °F 93% 29.34 in 10.0 mi West 3.5 mph - 0.00 in   Overcast
5:20 PM 39.2 °F 37.0 °F 37.4 °F 93% 29.35 in 10.0 mi SW 3.5 mph - N/A   Overcast
5:43 PM 37.4 °F 33.8 °F 35.6 °F 93% 29.35 in 1.8 mi SSW 4.6 mph - N/A   Scattered Clouds
5:53 PM 36.0 °F 33.3 °F 35.1 °F 97% 29.34 in 0.5 mi WSW 3.5 mph - N/A Fog Fog
6:11 PM 37.4 °F 31.4 °F 35.6 °F 93% 29.36 in 0.8 mi SW 8.1 mph - N/A   Overcast
6:16 PM 39.2 °F 33.6 °F 37.4 °F 93% 29.36 in 2.0 mi WSW 8.1 mph - N/A   Overcast
6:23 PM 39.2 °F 33.0 °F 39.2 °F 100% 29.35 in 9.0 mi WSW 9.2 mph - N/A   Overcast
6:31 PM 39.2 °F 34.2 °F 39.2 °F 100% 29.35 in 10.0 mi WSW 6.9 mph - N/A   Overcast
6:53 PM 37.9 °F 32.7 °F 37.0 °F 97% 29.33 in 9.0 mi WSW 6.9 mph - N/A   Overcast
7:40 PM 39.2 °F 34.2 °F 37.4 °F 93% 29.34 in 5.0 mi WSW 6.9 mph - N/A   Overcast
7:53 PM 39.0 °F 33.4 °F 37.9 °F 96% 29.34 in 8.0 mi WSW 8.1 mph - N/A   Overcast
8:53 PM 39.0 °F 32.3 °F 35.1 °F 86% 29.34 in 10.0 mi WSW 10.4 mph - N/A   Overcast
9:53 PM 37.9 °F 31.5 °F 30.9 °F 76% 29.34 in 10.0 mi West 9.2 mph - N/A   Overcast